• In Portugal
  • List of Countries
  • For 7 days
  • Water Temperature
  • Satellite Maps
  • Weather Map
  • Weather Widgets
  • user-avatar
    Login

    Hourly Weather Dhaka

    Today, 26 September, Tuesday

    Time Temperature Precipitation Wind Pressure Humidity
    00:00 +31°C° 0 mm 1 mps 752 mmHg 72%
    01:00 +31°C° 0 mm 1 mps 752 mmHg 73%
    02:00 +31°C° 0 mm 1 mps 751 mmHg 75%
    03:00 +31°C° 0 mm 1 mps 751 mmHg 76%
    04:00 +30°C° 0 mm 1 mps 751 mmHg 77%
    05:00 +30°C° 0 mm 1 mps 752 mmHg 79%
    06:00 +28°C° 0 mm 0 mps 752 mmHg 80%
    07:00 +31°C° 0 mm 1 mps 752 mmHg 75%
    08:00 +33°C° 0 mm 1 mps 753 mmHg 69%
    09:00 +34°C° 0 mm 1 mps 753 mmHg 64%
    10:00 +35°C° 0 mm 1 mps 753 mmHg 60%
    11:00 +36°C° 0 mm 1 mps 752 mmHg 56%
    12:00 +34°C° 0 mm 0 mps 753 mmHg 55%
    13:00 +34°C° 0 mm 0 mps 752 mmHg 55%
    14:00 +34°C° 0 mm 0 mps 751 mmHg 54%
    15:00 +34°C° 0 mm 0 mps 751 mmHg 54%
    16:00 +34°C° 0 mm 0 mps 751 mmHg 56%
    17:00 +33°C° 0 mm 0 mps 751 mmHg 58%
    18:00 +32°C° 0 mm 0 mps 751 mmHg 60%
    19:00 +34°C° 0 mm 1 mps 751 mmHg 62%
    20:00 +34°C° 0 mm 1 mps 752 mmHg 63%
    21:00 +33°C° 0 mm 1 mps 752 mmHg 64%
    22:00 +33°C° 0 mm 1 mps 752 mmHg 66%
    23:00 +33°C° 0 mm 1 mps 753 mmHg 67%

    Tomorrow, 27 September, Wednesday

    Time Temperature Precipitation Wind Pressure Humidity
    00:00 +32°C° 0 mm 1 mps 753 mmHg 69%
    01:00 +32°C° 0 mm 1 mps 753 mmHg 70%
    02:00 +32°C° 0 mm 1 mps 752 mmHg 72%
    03:00 +31°C° 0 mm 1 mps 752 mmHg 74%
    04:00 +31°C° 0.3 mm 1 mps 752 mmHg 76%
    05:00 +31°C° 0.3 mm 1 mps 752 mmHg 77%
    06:00 +30°C° 0.3 mm 1 mps 753 mmHg 79%
    07:00 +31°C° 1.1 mm 1 mps 753 mmHg 77%
    08:00 +32°C° 1.1 mm 2 mps 754 mmHg 74%
    09:00 +34°C° 1.1 mm 2 mps 754 mmHg 71%
    10:00 +35°C° 0.1 mm 2 mps 754 mmHg 68%
    11:00 +34°C° 0.1 mm 1 mps 754 mmHg 64%
    12:00 +35°C° 0.1 mm 1 mps 753 mmHg 61%
    13:00 +35°C° 0.2 mm 1 mps 752 mmHg 60%
    14:00 +35°C° 0.2 mm 1 mps 752 mmHg 60%
    15:00 +35°C° 0.2 mm 1 mps 751 mmHg 60%
    16:00 +34°C° 0 mm 1 mps 751 mmHg 62%
    17:00 +35°C° 0 mm 2 mps 751 mmHg 65%
    18:00 +34°C° 0 mm 2 mps 751 mmHg 68%
    19:00 +32°C° 0.2 mm 2 mps 752 mmHg 70%
    20:00 +32°C° 0.2 mm 2 mps 752 mmHg 71%
    21:00 +31°C° 0.2 mm 2 mps 753 mmHg 73%
    22:00 +31°C° 0.3 mm 2 mps 753 mmHg 74%
    23:00 +31°C° 0.3 mm 2 mps 753 mmHg 76%

    Day after tomorrow, 28 September, Thursday

    Time Temperature Precipitation Wind Pressure Humidity
    00:00 +31°C° 0.3 mm 1 mps 753 mmHg 77%
    01:00 +31°C° 0.2 mm 1 mps 752 mmHg 78%
    02:00 +30°C° 0.2 mm 1 mps 752 mmHg 80%
    03:00 +30°C° 0.2 mm 1 mps 751 mmHg 81%
    04:00 +30°C° 0.9 mm 1 mps 752 mmHg 82%
    05:00 +30°C° 0.9 mm 1 mps 752 mmHg 83%
    06:00 +30°C° 0.9 mm 1 mps 752 mmHg 84%
    07:00 +30°C° 1.9 mm 1 mps 753 mmHg 82%
    08:00 +31°C° 1.9 mm 1 mps 753 mmHg 80%
    09:00 +31°C° 1.9 mm 1 mps 753 mmHg 78%
    10:00 +32°C° 0.1 mm 1 mps 753 mmHg 75%
    11:00 +32°C° 0.1 mm 1 mps 752 mmHg 73%
    12:00 +33°C° 0.1 mm 1 mps 752 mmHg 70%
    13:00 +33°C° 0.1 mm 1 mps 751 mmHg 67%
    14:00 +35°C° 0.1 mm 2 mps 750 mmHg 65%
    15:00 +35°C° 0.1 mm 2 mps 749 mmHg 63%
    16:00 +35°C° 0 mm 2 mps 750 mmHg 65%
    17:00 +34°C° 0 mm 2 mps 750 mmHg 68%
    18:00 +32°C° 0 mm 1 mps 750 mmHg 70%
    19:00 +32°C° 0.9 mm 1 mps 751 mmHg 72%
    20:00 +31°C° 0.9 mm 1 mps 751 mmHg 74%
    21:00 +31°C° 0.9 mm 1 mps 752 mmHg 76%
    22:00 +30°C° 2.8 mm 2 mps 752 mmHg 79%
    23:00 +30°C° 2.8 mm 2 mps 752 mmHg 83%

    29 September, Friday

    Time Temperature Precipitation Wind Pressure Humidity
    00:00 +29°C° 2.8 mm 3 mps 752 mmHg 86%
    01:00 +29°C° 3.1 mm 2 mps 752 mmHg 88%
    02:00 +29°C° 3.1 mm 2 mps 751 mmHg 89%
    03:00 +28°C° 3.1 mm 2 mps 751 mmHg 91%
    04:00 +28°C° 4.8 mm 2 mps 751 mmHg 91%
    05:00 +28°C° 4.8 mm 2 mps 752 mmHg 92%
    06:00 +28°C° 4.8 mm 1 mps 752 mmHg 93%
    07:00 +28°C° 2.3 mm 1 mps 752 mmHg 92%
    08:00 +28°C° 2.3 mm 1 mps 753 mmHg 91%
    09:00 +28°C° 2.3 mm 1 mps 754 mmHg 91%
    10:00 +29°C° 0.3 mm 1 mps 753 mmHg 87%
    11:00 +29°C° 0.3 mm 1 mps 753 mmHg 84%
    12:00 +30°C° 0.3 mm 2 mps 752 mmHg 81%
    13:00 +30°C° 0.4 mm 2 mps 751 mmHg 80%
    14:00 +31°C° 0.4 mm 2 mps 751 mmHg 79%
    15:00 +31°C° 0.4 mm 2 mps 750 mmHg 78%
    16:00 +30°C° 1.2 mm 2 mps 750 mmHg 81%
    17:00 +29°C° 1.2 mm 2 mps 750 mmHg 85%
    18:00 +29°C° 1.2 mm 2 mps 750 mmHg 89%
    19:00 +28°C° 0.7 mm 2 mps 751 mmHg 90%
    20:00 +28°C° 0.7 mm 2 mps 752 mmHg 90%
    21:00 +28°C° 0.7 mm 2 mps 752 mmHg 91%
    22:00 +28°C° 1.2 mm 2 mps 752 mmHg 91%
    23:00 +28°C° 1.2 mm 2 mps 752 mmHg 91%

    30 September, Saturday

    Time Temperature Precipitation Wind Pressure Humidity
    00:00 +28°C° 1.2 mm 3 mps 752 mmHg 90%
    01:00 +28°C° 1.5 mm 3 mps 752 mmHg 91%
    02:00 +28°C° 1.5 mm 3 mps 752 mmHg 91%
    03:00 +28°C° 1.5 mm 3 mps 752 mmHg 91%
    04:00 +28°C° 0.9 mm 3 mps 752 mmHg 91%
    05:00 +28°C° 0.9 mm 3 mps 752 mmHg 91%
    06:00 +27°C° 0.9 mm 3 mps 753 mmHg 91%
    07:00 +28°C° 1 mm 3 mps 753 mmHg 89%
    08:00 +29°C° 1 mm 3 mps 754 mmHg 86%
    09:00 +30°C° 1 mm 3 mps 754 mmHg 84%
    10:00 +30°C° 1.2 mm 3 mps 753 mmHg 80%
    11:00 +31°C° 1.2 mm 3 mps 753 mmHg 77%
    12:00 +33°C° 1.2 mm 3 mps 752 mmHg 74%
    13:00 +33°C° 2.2 mm 3 mps 752 mmHg 75%
    14:00 +33°C° 2.2 mm 3 mps 751 mmHg 76%
    15:00 +33°C° 2.2 mm 3 mps 750 mmHg 77%
    16:00 +31°C° 1.9 mm 3 mps 751 mmHg 80%
    17:00 +30°C° 1.9 mm 3 mps 751 mmHg 82%
    18:00 +29°C° 1.9 mm 2 mps 752 mmHg 85%
    19:00 +29°C° 0.4 mm 2 mps 752 mmHg 86%
    20:00 +29°C° 0.4 mm 2 mps 753 mmHg 87%
    21:00 +29°C° 0.4 mm 2 mps 753 mmHg 88%
    22:00 +28°C° 1.1 mm 3 mps 753 mmHg 88%
    23:00 +28°C° 1.1 mm 3 mps 753 mmHg 88%

    1 October, Sunday

    Time Temperature Precipitation Wind Pressure Humidity
    00:00 +28°C° 1.1 mm 3 mps 753 mmHg 89%
    01:00 +28°C° 0.9 mm 3 mps 753 mmHg 89%
    02:00 +28°C° 0.9 mm 3 mps 752 mmHg 90%
    03:00 +28°C° 0.9 mm 3 mps 752 mmHg 91%
    04:00 +28°C° 0.7 mm 3 mps 752 mmHg 91%
    05:00 +28°C° 0.7 mm 3 mps 753 mmHg 91%
    06:00 +28°C° 0.7 mm 3 mps 753 mmHg 91%
    07:00 +29°C° 0.9 mm 3 mps 754 mmHg 87%
    08:00 +30°C° 0.9 mm 4 mps 754 mmHg 84%
    09:00 +30°C° 0.9 mm 4 mps 754 mmHg 80%
    10:00 +32°C° 1.2 mm 5 mps 754 mmHg 78%
    11:00 +33°C° 1.2 mm 5 mps 753 mmHg 77%
    12:00 +33°C° 1.2 mm 5 mps 753 mmHg 75%
    13:00 +33°C° 1.9 mm 6 mps 752 mmHg 77%
    14:00 +32°C° 1.9 mm 6 mps 752 mmHg 78%
    15:00 +32°C° 1.9 mm 6 mps 751 mmHg 80%
    16:00 +30°C° 2.2 mm 5 mps 752 mmHg 82%
    17:00 +30°C° 2.2 mm 4 mps 752 mmHg 85%
    18:00 +29°C° 2.2 mm 4 mps 752 mmHg 88%
    19:00 +29°C° 1.4 mm 3 mps 753 mmHg 88%
    20:00 +29°C° 1.4 mm 3 mps 753 mmHg 88%
    21:00 +29°C° 1.4 mm 2 mps 754 mmHg 88%
    22:00 +28°C° 1.7 mm 2 mps 753 mmHg 88%
    23:00 +28°C° 1.7 mm 2 mps 753 mmHg 88%
    Show more